When you browse on this site, cookies collect data to enhance your experience and personalize the content and advertising you see.
Visit our Privacy Policy to learn more. By continuing to use the site, you agree to this use of cookies and data.
  • In Portugal
  • List of Countries
  • For 7 days
  • Water Temperature
  • Satellite Maps
  • Weather Map
  • Weather Widgets
  • user-avatar
    Login

    Hourly Weather Koshki

    Today, 18 February, Monday

    Time Temperature Precipitation Wind Pressure Humidity
    00:00 -2°C° 0.6 mm 3 mps 729 mmHg 96%
    01:00 -3°C° 0.2 mm 4 mps 728 mmHg 94%
    02:00 -3°C° 0.2 mm 4 mps 728 mmHg 93%
    03:00 -4°C° 0 mm 4 mps 728 mmHg 93%
    04:00 -4°C° 0.1 mm 4 mps 728 mmHg 92%
    05:00 -4°C° 0.1 mm 4 mps 728 mmHg 92%
    06:00 -6°C° 0.1 mm 5 mps 728 mmHg 92%
    07:00 -6°C° 0.1 mm 5 mps 728 mmHg 93%
    08:00 -4°C° 0.1 mm 4 mps 729 mmHg 93%
    09:00 -4°C° 0.1 mm 4 mps 729 mmHg 93%
    10:00 -5°C° 0.1 mm 5 mps 729 mmHg 92%
    11:00 -4°C° 0.1 mm 5 mps 730 mmHg 90%
    12:00 -4°C° 0.1 mm 6 mps 730 mmHg 89%
    13:00 -4°C° 0.2 mm 7 mps 731 mmHg 89%
    14:00 -4°C° 0.2 mm 7 mps 731 mmHg 88%
    15:00 -5°C° 0.2 mm 8 mps 732 mmHg 88%
    16:00 -6°C° 0.3 mm 9 mps 733 mmHg 86%
    17:00 -8°C° 0.3 mm 10 mps 734 mmHg 84%
    18:00 -9°C° 0.3 mm 11 mps 735 mmHg 83%
    19:00 -9°C° 0.1 mm 11 mps 736 mmHg 83%
    20:00 -10°C° 0.1 mm 10 mps 737 mmHg 83%
    21:00 -12°C° 0.1 mm 10 mps 738 mmHg 84%
    22:00 -13°C° 0.1 mm 10 mps 739 mmHg 83%
    23:00 -14°C° 0.1 mm 10 mps 740 mmHg 82%

    Tomorrow, 19 February, Tuesday

    Time Temperature Precipitation Wind Pressure Humidity
    00:00 -15°C° 0.1 mm 10 mps 741 mmHg 82%
    01:00 -16°C° 0 mm 9 mps 742 mmHg 82%
    02:00 -17°C° 0 mm 9 mps 743 mmHg 83%
    03:00 -20°C° 0 mm 9 mps 744 mmHg 83%
    04:00 -21°C° 0 mm 8 mps 745 mmHg 83%
    05:00 -21°C° 0 mm 8 mps 746 mmHg 83%
    06:00 -22°C° 0 mm 8 mps 747 mmHg 83%
    07:00 -22°C° 0 mm 8 mps 747 mmHg 83%
    08:00 -21°C° 0 mm 7 mps 748 mmHg 83%
    09:00 -21°C° 0 mm 7 mps 749 mmHg 83%
    10:00 -21°C° 0 mm 7 mps 749 mmHg 82%
    11:00 -20°C° 0 mm 6 mps 750 mmHg 81%
    12:00 -18°C° 0 mm 6 mps 750 mmHg 80%
    13:00 -18°C° 0 mm 5 mps 750 mmHg 80%
    14:00 -18°C° 0 mm 5 mps 751 mmHg 81%
    15:00 -17°C° 0 mm 4 mps 751 mmHg 81%
    16:00 -18°C° 0 mm 4 mps 751 mmHg 83%
    17:00 -17°C° 0 mm 3 mps 751 mmHg 85%
    18:00 -18°C° 0 mm 3 mps 751 mmHg 87%
    19:00 -16°C° 0 mm 2 mps 751 mmHg 88%
    20:00 -15°C° 0 mm 2 mps 751 mmHg 89%
    21:00 -14°C° 0 mm 2 mps 751 mmHg 90%
    22:00 -13°C° 0 mm 2 mps 750 mmHg 91%
    23:00 -14°C° 0 mm 3 mps 750 mmHg 92%

    Day after tomorrow, 20 February, Wednesday

    Time Temperature Precipitation Wind Pressure Humidity
    00:00 -13°C° 0 mm 3 mps 750 mmHg 92%
    01:00 -13°C° 0 mm 3 mps 750 mmHg 93%
    02:00 -13°C° 0 mm 3 mps 750 mmHg 94%
    03:00 -12°C° 0 mm 3 mps 749 mmHg 95%
    04:00 -12°C° 0 mm 3 mps 749 mmHg 95%
    05:00 -12°C° 0 mm 3 mps 749 mmHg 95%
    06:00 -12°C° 0 mm 3 mps 749 mmHg 95%
    07:00 -10°C° 0 mm 3 mps 749 mmHg 94%
    08:00 -11°C° 0 mm 4 mps 749 mmHg 94%
    09:00 -11°C° 0 mm 4 mps 749 mmHg 94%
    10:00 -11°C° 0 mm 4 mps 749 mmHg 93%
    11:00 -10°C° 0 mm 4 mps 748 mmHg 92%
    12:00 -11°C° 0 mm 5 mps 748 mmHg 91%
    13:00 -10°C° 0 mm 5 mps 748 mmHg 90%
    14:00 -10°C° 0 mm 5 mps 747 mmHg 90%
    15:00 -10°C° 0 mm 5 mps 747 mmHg 89%
    16:00 -8°C° 0 mm 5 mps 747 mmHg 88%
    17:00 -8°C° 0 mm 5 mps 747 mmHg 88%
    18:00 -8°C° 0 mm 6 mps 746 mmHg 87%
    19:00 -8°C° 0 mm 6 mps 746 mmHg 88%
    20:00 -8°C° 0 mm 6 mps 746 mmHg 88%
    21:00 -8°C° 0 mm 6 mps 746 mmHg 89%
    22:00 -8°C° 0 mm 6 mps 746 mmHg 89%
    23:00 -8°C° 0 mm 6 mps 745 mmHg 90%

    21 February, Thursday

    Time Temperature Precipitation Wind Pressure Humidity
    00:00 -6°C° 0 mm 6 mps 745 mmHg 91%
    01:00 -8°C° 0 mm 6 mps 745 mmHg 91%
    02:00 -8°C° 0 mm 6 mps 745 mmHg 91%
    03:00 -8°C° 0 mm 6 mps 744 mmHg 91%
    04:00 -8°C° 0.1 mm 6 mps 744 mmHg 92%
    05:00 -8°C° 0.1 mm 6 mps 744 mmHg 92%
    06:00 -8°C° 0.1 mm 6 mps 744 mmHg 92%
    07:00 -8°C° 0.2 mm 6 mps 744 mmHg 92%
    08:00 -8°C° 0.2 mm 6 mps 744 mmHg 92%
    09:00 -6°C° 0.2 mm 6 mps 744 mmHg 93%
    10:00 -6°C° 0.3 mm 6 mps 744 mmHg 93%
    11:00 -6°C° 0.3 mm 6 mps 744 mmHg 93%
    12:00 -6°C° 0.3 mm 7 mps 743 mmHg 93%
    13:00 -6°C° 0.5 mm 7 mps 743 mmHg 93%
    14:00 -6°C° 0.5 mm 7 mps 743 mmHg 93%
    15:00 -6°C° 0.5 mm 7 mps 742 mmHg 92%
    16:00 -6°C° 0.4 mm 7 mps 742 mmHg 92%
    17:00 -5°C° 0.4 mm 6 mps 742 mmHg 92%
    18:00 -5°C° 0.4 mm 6 mps 742 mmHg 91%
    19:00 -5°C° 0.1 mm 6 mps 741 mmHg 92%
    20:00 -4°C° 0.1 mm 6 mps 741 mmHg 92%
    21:00 -4°C° 0.1 mm 5 mps 740 mmHg 92%
    22:00 -4°C° 0.2 mm 5 mps 740 mmHg 93%
    23:00 -4°C° 0.2 mm 5 mps 740 mmHg 93%

    22 February, Friday

    Time Temperature Precipitation Wind Pressure Humidity
    00:00 -4°C° 0.2 mm 5 mps 739 mmHg 94%
    01:00 -4°C° 0.3 mm 5 mps 739 mmHg 94%
    02:00 -3°C° 0.3 mm 4 mps 739 mmHg 94%
    03:00 -2°C° 0.3 mm 4 mps 739 mmHg 93%
    04:00 -3°C° 0.2 mm 4 mps 738 mmHg 94%
    05:00 -3°C° 0.2 mm 4 mps 738 mmHg 95%
    06:00 -2°C° 0.2 mm 3 mps 738 mmHg 95%
    07:00 -4°C° 0.2 mm 3 mps 738 mmHg 95%
    08:00 -5°C° 0.2 mm 3 mps 738 mmHg 95%
    09:00 -7°C° 0.2 mm 4 mps 738 mmHg 95%
    10:00 -8°C° 0.1 mm 4 mps 739 mmHg 95%
    11:00 -8°C° 0.1 mm 4 mps 739 mmHg 95%
    12:00 -8°C° 0.1 mm 4 mps 739 mmHg 95%
    13:00 -8°C° 0.1 mm 5 mps 739 mmHg 94%
    14:00 -8°C° 0.1 mm 5 mps 740 mmHg 93%
    15:00 -7°C° 0.1 mm 5 mps 740 mmHg 92%
    16:00 -9°C° 0.2 mm 6 mps 741 mmHg 91%
    17:00 -11°C° 0.2 mm 7 mps 742 mmHg 91%
    18:00 -12°C° 0.2 mm 7 mps 743 mmHg 90%
    19:00 -13°C° 0.1 mm 7 mps 744 mmHg 90%
    20:00 -14°C° 0.1 mm 7 mps 745 mmHg 90%
    21:00 -14°C° 0.1 mm 6 mps 745 mmHg 90%
    22:00 -15°C° 0 mm 6 mps 746 mmHg 90%
    23:00 -14°C° 0 mm 5 mps 747 mmHg 91%

    23 February, Saturday

    Time Temperature Precipitation Wind Pressure Humidity
    00:00 -15°C° 0 mm 5 mps 748 mmHg 91%
    01:00 -16°C° 0 mm 4 mps 749 mmHg 92%
    02:00 -16°C° 0 mm 4 mps 750 mmHg 92%
    03:00 -16°C° 0 mm 3 mps 751 mmHg 93%
    04:00 -17°C° 0 mm 3 mps 751 mmHg 93%
    05:00 -17°C° 0 mm 3 mps 752 mmHg 94%
    06:00 -17°C° 0 mm 3 mps 752 mmHg 94%
    07:00 -17°C° 0 mm 3 mps 753 mmHg 94%
    08:00 -17°C° 0 mm 3 mps 753 mmHg 93%
    09:00 -17°C° 0 mm 3 mps 754 mmHg 92%
    10:00 -16°C° 0 mm 3 mps 754 mmHg 91%
    11:00 -15°C° 0 mm 2 mps 754 mmHg 89%
    12:00 -15°C° 0 mm 2 mps 754 mmHg 88%
    13:00 -15°C° 0 mm 2 mps 754 mmHg 89%
    14:00 -15°C° 0 mm 2 mps 754 mmHg 89%
    15:00 -16°C° 0 mm 2 mps 754 mmHg 90%
    16:00 -17°C° 0 mm 2 mps 755 mmHg 91%
    17:00 -18°C° 0 mm 2 mps 755 mmHg 93%
    18:00 -18°C° 0 mm 1 mps 755 mmHg 94%
    19:00 -19°C° 0 mm 1 mps 756 mmHg 96%
    20:00 -20°C° 0 mm 1 mps 756 mmHg 97%
    21:00 -21°C° 0 mm 0 mps 756 mmHg 98%
    22:00 -21°C° 0 mm 0 mps 756 mmHg 98%
    23:00 -22°C° 0 mm 0 mps 756 mmHg 99%
    Show more